GW1480 Weather Reports


Display with metric or nautical units.
time (UTC)temp
F
wind
direction
speed
MPH
gust
MPH
rain 1hr
in
rain 24hr
in
rain mn
in
humidity
%
barometer
mb
20260504200320 74 273 2.0 5.0 0.00 0.00 0.01 51 1012.8
20260504195752 73 295 0.0 2.0 0.00 0.00 0.01 52 1013.2
20260504195124 73 173 0.0 2.0 0.00 0.00 0.01 54 1013.2
20260504194552 72 232 2.0 5.0 0.00 0.00 0.01 55 1013.5
20260504193936 71 189 4.0 7.0 0.00 0.00 0.01 54 1013.5
20260504193337 71 86 4.0 7.0 0.00 0.00 0.01 56 1013.5
20260504192722 70 225 1.0 5.0 0.00 0.00 0.01 57 1013.5
20260504192139 69 152 4.0 7.0 0.00 0.00 0.01 60 1013.5
20260504191533 69 254 0.0 2.0 0.00 0.00 0.01 63 1013.8
20260504190949 69 229 0.0 2.0 0.00 0.00 0.01 63 1013.8
20260504185733 72 271 2.0 5.0 0.00 0.00 0.00 65 1014.2
20260504184535 73 242 4.0 7.0 0.00 0.00 0.00 54 1013.8
20260504183943 73 214 4.0 5.0 0.00 0.00 0.00 52 1013.8
20260504183329 73 77 2.0 2.0 0.00 0.00 0.00 51 1013.8
20260504182741 72 350 1.0 2.0 0.00 0.00 0.00 52 1013.5
20260504182142 72 49 4.0 7.0 0.00 0.00 0.00 51 1013.5
20260504181512 72 85 2.0 5.0 0.00 0.00 0.00 53 1013.5
20260504180923 72 142 1.0 5.0 0.00 0.00 0.00 52 1013.5
20260504180320 71 43 4.0 5.0 0.00 0.00 0.00 54 1013.5
20260504175748 71 316 4.0 5.0 0.00 0.00 0.00 54 1013.5
20260504174534 71 97 4.0 5.0 0.00 0.00 0.00 54 1013.8
20260504173931 71 238 4.0 7.0 0.00 0.00 0.00 55 1014.2
20260504172713 70 18 1.0 2.0 0.00 0.00 0.00 53 1013.8
20260504172134 70 268 2.0 5.0 0.00 0.00 0.00 59 1014.2
20260504171554 69 312 4.0 7.0 0.00 0.00 0.00 58 1014.2
20260504170919 69 152 0.0 2.0 0.00 0.00 0.00 57 1014.5
20260504170335 68 97 4.0 7.0 0.00 0.00 0.00 60 1014.5
20260504160347 65 265 1.0 2.0 0.00 0.00 0.00 69 1015.9
20260504150915 62 78 2.0 5.0 0.00 0.00 0.00 68 1016.2
20260504140937 60 324 1.0 2.0 0.00 0.00 0.00 68 1017.2
20260504140321 60 173 1.0 2.0 0.00 0.00 0.00 67 1016.9
20260504130318 59 40 4.0 7.0 0.00 0.00 0.00 62 1016.2
20260504110322 42 213 2.0 5.0 0.00 0.00 0.00 94 1015.9
20260504100350 42 229 1.0 2.0 0.00 0.00 0.00 93 1016.2
20260504081552 44 236 1.0 2.0 0.00 0.00 0.00 92 1016.5
20260504080329 44 206 0.0 0.0 0.00 0.00 0.00 91 1016.5
20260504070351 47 201 0.0 0.0 0.00 0.00 0.00 89 1016.9
20260504045731 48 220 0.0 0.0 0.00 0.00 0.00 85 1017.9
20260504045152 48 225 0.0 0.0 0.00 0.00 0.00 89 1017.9
20260504044536 48 227 0.0 0.0 0.00 0.00 0.00 89 1017.9
20260504043915 48 221 0.0 0.0 0.00 0.00 0.00 90 1017.9
20260504042719 48 216 0.0 0.0 0.00 0.00 0.00 90 1018.2
20260504042142 48 240 0.0 0.0 0.00 0.00 0.00 90 1018.2
20260504041542 48 225 0.0 0.0 0.00 0.00 0.00 91 1018.2
20260504040949 48 223 0.0 0.0 0.00 0.00 0.00 90 1017.9
20260504035738 48 220 0.0 0.0 0.00 0.00 0.00 87 1017.9
20260504035142 48 236 0.0 0.0 0.00 0.00 0.00 87 1017.9
20260504033953 48 154 0.0 0.0 0.00 0.00 0.00 86 1018.2
20260504033342 48 209 0.0 0.0 0.00 0.00 0.00 86 1018.2
20260504032713 48 165 0.0 0.0 0.00 0.00 0.00 85 1017.9
20260504032125 48 228 0.0 0.0 0.00 0.00 0.00 84 1018.2
20260504031536 48 48 0.0 0.0 0.00 0.00 0.00 84 1017.9
20260504030952 48 224 0.0 0.0 0.00 0.00 0.00 85 1017.9
20260504030354 48 233 0.0 0.0 0.00 0.00 0.00 83 1017.9
20260504025115 48 224 0.0 0.0 0.00 0.00 0.00 82 1017.9
20260504024555 48 224 0.0 0.0 0.00 0.00 0.00 83 1017.9
20260504023317 48 224 0.0 0.0 0.00 0.00 0.00 82 1017.9
20260504022747 47 234 0.0 0.0 0.00 0.00 0.00 81 1017.6
20260504021538 47 220 0.0 0.0 0.00 0.00 0.00 80 1017.6
20260504020353 47 213 0.0 0.0 0.00 0.00 0.00 77 1017.6
20260504015734 46 216 0.0 0.0 0.00 0.00 0.00 78 1017.6
20260504015121 46 214 0.0 0.0 0.00 0.00 0.00 78 1017.6
20260504014530 46 216 0.0 0.0 0.00 0.00 0.00 81 1017.6
20260504013925 46 217 0.0 0.0 0.00 0.00 0.00 79 1017.6
20260504013334 46 214 0.0 0.0 0.00 0.00 0.00 81 1017.6
20260504012735 46 216 0.0 0.0 0.00 0.00 0.00 81 1017.6
20260504011522 48 225 0.0 0.0 0.00 0.00 0.00 81 1017.9
20260504010939 48 219 0.0 0.0 0.00 0.00 0.00 80 1017.9
20260504010354 49 217 0.0 0.0 0.00 0.00 0.00 78 1017.9
20260504005728 49 221 0.0 0.0 0.00 0.00 0.00 78 1017.6
20260504004531 50 223 0.0 0.0 0.00 0.00 0.00 75 1017.6
20260504003953 50 228 0.0 0.0 0.00 0.00 0.00 74 1017.6
20260504003337 51 224 0.0 0.0 0.00 0.00 0.00 74 1017.6
20260504002742 52 225 0.0 0.0 0.00 0.00 0.00 74 1017.2
20260504002127 53 226 0.0 0.0 0.00 0.00 0.00 71 1017.6
20260504001533 54 229 0.0 0.0 0.00 0.00 0.00 66 1017.9
20260504000928 54 229 0.0 0.0 0.00 0.00 0.00 66 1017.6
20260504000328 55 232 0.0 0.0 0.00 0.00 0.00 63 1017.6
20260503234521 58 228 0.0 0.0 0.00 0.00 0.00 63 1017.6
20260503231524 64 316 0.0 0.0 0.00 0.00 0.00 45 1017.9
20260503230953 64 265 0.0 0.0 0.00 0.00 0.00 45 1017.9
20260503230351 64 239 0.0 0.0 0.00 0.00 0.00 39 1017.6
20260503225724 65 258 0.0 0.0 0.00 0.00 0.00 39 1017.9
20260503225148 65 232 0.0 0.0 0.00 0.00 0.00 36 1017.9
20260503224527 65 219 0.0 0.0 0.00 0.00 0.00 34 1017.9
20260503223912 65 252 4.0 5.0 0.00 0.00 0.00 36 1017.9
20260503223351 65 110 6.0 7.0 0.00 0.00 0.00 33 1017.9
20260503222727 65 285 0.0 0.0 0.00 0.00 0.00 32 1017.9
20260503222144 65 186 0.0 0.0 0.00 0.00 0.00 33 1017.9
20260503221527 65 277 0.0 0.0 0.00 0.00 0.00 35 1017.9
20260503220909 66 338 5.0 7.0 0.00 0.00 0.00 33 1017.9
20260503220333 66 185 4.0 7.0 0.00 0.00 0.00 32 1017.9
20260503215723 65 257 2.0 5.0 0.00 0.00 0.00 35 1017.9
20260503215141 65 312 4.0 7.0 0.00 0.00 0.00 34 1018.2
20260503214519 65 78 6.0 17.0 0.00 0.00 0.00 35 1017.9
20260503213944 65 341 3.0 5.0 0.00 0.00 0.00 33 1018.2
20260503213328 65 276 2.0 5.0 0.00 0.00 0.00 34 1018.2
20260503212750 65 256 0.0 2.0 0.00 0.00 0.00 35 1017.9
20260503212128 65 303 4.0 7.0 0.00 0.00 0.00 35 1018.2
20260503211543 65 183 2.0 2.0 0.00 0.00 0.00 32 1017.9
20260503210933 65 299 2.0 5.0 0.00 0.00 0.00 32 1018.2
20260503210349 65 1 7.0 10.0 0.00 0.00 0.00 32 1018.2
20260503205719 65 327 6.0 7.0 0.00 0.00 0.00 31 1018.2
20260503203914 64 147 4.0 5.0 0.00 0.00 0.00 33 1018.6
20260503203343 64 225 0.0 0.0 0.00 0.00 0.00 32 1018.6
20260503202733 65 304 1.0 2.0 0.00 0.00 0.00 35 1018.9
20260503202127 65 46 7.0 10.0 0.00 0.00 0.00 33 1018.9
20260503201509 64 225 0.0 2.0 0.00 0.00 0.00 31 1019.3
20260503200953 64 308 4.0 7.0 0.00 0.00 0.00 35 1018.9